GW3518 Weather Reports


time (UTC)temp
C
wind
direction
speed
KPH
gust
KPH
rain 1hr
cm
rain 24hr
cm
rain mn
cm
humidity
%
barometer
mb
20260504150929 14 344 3.2 3.2 0.00 0.00 0.00 49 1006.1
20260504150426 14 72 0.0 1.6 0.00 0.00 0.00 51 1006.2
20260504140853 15 59 1.6 3.2 0.00 0.00 0.00 47 1006.2
20260504140349 15 16 4.8 9.7 0.00 0.00 0.00 47 1005.9
20260504130818 13 78 0.0 0.0 0.00 0.00 0.00 53 1006.4
20260504130314 12 115 0.0 1.6 0.00 0.00 0.00 58 1006.6
20260504120237 6 349 0.0 0.0 0.00 0.00 0.00 88 1006.9
20260504110705 3 123 0.0 0.0 0.00 0.00 0.00 92 1007.4
20260504110201 3 123 0.0 0.0 0.00 0.00 0.00 91 1007.4
20260504100125 2 203 0.0 0.0 0.00 0.00 0.00 92 1007.5
20260504081518 2 202 0.0 0.0 0.00 0.00 0.00 92 1007.5
20260504081013 2 202 0.0 0.0 0.00 0.00 0.00 92 1007.8
20260504080510 2 202 0.0 0.0 0.00 0.00 0.00 92 1007.6
20260504050311 2 236 0.0 0.0 0.00 0.00 0.00 78 1007.8
20260504045808 2 235 0.0 0.0 0.00 0.00 0.00 78 1007.8
20260504045304 2 249 0.0 1.6 0.00 0.00 0.00 75 1008.0
20260504044800 2 187 0.0 0.0 0.00 0.00 0.00 77 1007.8
20260504044258 2 187 0.0 0.0 0.00 0.00 0.00 75 1008.1
20260504043755 2 254 3.2 3.2 0.00 0.00 0.00 76 1008.1
20260504043251 2 249 0.0 0.0 0.00 0.00 0.00 78 1008.1
20260504042749 2 248 0.0 0.0 0.00 0.00 0.00 78 1008.2
20260504042245 2 266 1.6 1.6 0.00 0.00 0.00 77 1008.3
20260504041742 2 268 3.2 3.2 0.00 0.00 0.00 77 1008.2
20260504041238 2 267 1.6 1.6 0.00 0.00 0.00 77 1008.2
20260504040734 2 267 0.0 0.0 0.00 0.00 0.00 78 1008.2
20260504040232 2 266 0.0 0.0 0.00 0.00 0.00 76 1008.1
20260504035728 2 266 1.6 1.6 0.00 0.00 0.00 76 1008.0
20260504035225 2 267 0.0 1.6 0.00 0.00 0.00 77 1008.1
20260504034723 2 268 1.6 1.6 0.00 0.00 0.00 77 1008.0
20260504034220 2 259 0.0 0.0 0.00 0.00 0.00 76 1008.0
20260504033717 2 259 0.0 0.0 0.00 0.00 0.00 76 1008.1
20260504033215 2 259 0.0 0.0 0.00 0.00 0.00 76 1008.2
20260504032711 2 259 0.0 1.6 0.00 0.00 0.00 76 1008.1
20260504032209 2 258 0.0 1.6 0.00 0.00 0.00 77 1008.2
20260504031705 2 258 0.0 0.0 0.00 0.00 0.00 77 1008.0
20260504031202 2 258 0.0 0.0 0.00 0.00 0.00 78 1008.0
20260504030658 2 258 0.0 0.0 0.00 0.00 0.00 77 1007.9
20260504030156 2 258 0.0 0.0 0.00 0.00 0.00 76 1008.2
20260504025652 2 258 1.6 1.6 0.00 0.00 0.00 76 1008.3
20260504025149 2 257 0.0 0.0 0.00 0.00 0.00 76 1008.0
20260504024646 2 256 0.0 0.0 0.00 0.00 0.00 76 1008.2
20260504024142 2 255 1.6 1.6 0.00 0.00 0.00 77 1008.2
20260504023639 2 262 0.0 0.0 0.00 0.00 0.00 75 1008.1
20260504023135 3 261 0.0 0.0 0.00 0.00 0.00 74 1008.1
20260504022632 3 240 1.6 1.6 0.00 0.00 0.00 74 1008.0
20260504022127 3 236 0.0 0.0 0.00 0.00 0.00 73 1008.3
20260504021626 3 236 0.0 0.0 0.00 0.00 0.00 75 1008.0
20260504021122 3 236 0.0 0.0 0.00 0.00 0.00 71 1008.0
20260504020619 3 235 0.0 0.0 0.00 0.00 0.00 69 1008.3
20260504020115 3 235 0.0 0.0 0.00 0.00 0.00 70 1008.2
20260504015612 4 235 0.0 0.0 0.00 0.00 0.00 68 1008.3
20260504015108 4 235 0.0 0.0 0.00 0.00 0.00 71 1008.1
20260504014604 4 235 0.0 0.0 0.00 0.00 0.00 67 1008.0
20260504014102 4 233 0.0 0.0 0.00 0.00 0.00 67 1008.1
20260504013559 4 233 1.6 1.6 0.00 0.00 0.00 68 1007.9
20260504013056 5 233 0.0 1.6 0.00 0.00 0.00 67 1008.2
20260504012553 4 233 0.0 0.0 0.00 0.00 0.00 69 1008.0
20260504012051 4 233 0.0 0.0 0.00 0.00 0.00 66 1007.8
20260504011547 4 233 0.0 0.0 0.00 0.00 0.00 66 1007.7
20260504011043 4 233 0.0 0.0 0.00 0.00 0.00 67 1007.7
20260504010539 5 233 0.0 0.0 0.00 0.00 0.00 67 1007.8
20260504010036 5 233 0.0 0.0 0.00 0.00 0.00 66 1007.5
20260504005532 5 233 0.0 0.0 0.00 0.00 0.00 64 1007.3
20260504005030 5 233 0.0 0.0 0.00 0.00 0.00 64 1007.4
20260504004528 5 233 0.0 0.0 0.00 0.00 0.00 64 1007.5
20260504004024 6 233 0.0 0.0 0.00 0.00 0.00 65 1007.3
20260504003520 6 233 0.0 0.0 0.00 0.00 0.00 60 1007.3
20260504003018 6 233 0.0 0.0 0.00 0.00 0.00 60 1007.2
20260504002514 6 233 0.0 0.0 0.00 0.00 0.00 60 1007.1
20260504002006 6 233 0.0 0.0 0.00 0.00 0.00 59 1007.2
20260504001503 6 233 0.0 0.0 0.00 0.00 0.00 61 1007.2
20260504000959 6 233 0.0 0.0 0.00 0.00 0.00 56 1007.1
20260504000457 6 233 0.0 0.0 0.00 0.00 0.00 57 1007.1
20260503235954 6 233 0.0 0.0 0.00 0.00 0.00 56 1007.1
20260503235452 6 233 0.0 0.0 0.00 0.00 0.00 56 1006.9
20260503234949 7 233 1.6 1.6 0.00 0.00 0.00 57 1007.1
20260503234446 7 232 0.0 0.0 0.00 0.00 0.00 58 1006.8
20260503233945 7 228 0.0 0.0 0.00 0.00 0.00 60 1007.1
20260503233440 7 227 0.0 0.0 0.00 0.00 0.00 58 1006.6
20260503232937 7 227 0.0 0.0 0.00 0.00 0.00 58 1006.8
20260503232434 7 279 1.6 1.6 0.00 0.00 0.00 54 1006.8
20260503231932 7 276 1.6 1.6 0.00 0.00 0.00 56 1006.6
20260503231429 8 304 0.0 0.0 0.00 0.00 0.00 53 1006.6
20260503230926 8 305 0.0 0.0 0.00 0.00 0.00 55 1006.7
20260503230422 8 305 0.0 0.0 0.00 0.00 0.00 52 1006.7
20260503225920 8 305 0.0 0.0 0.00 0.00 0.00 49 1006.7
20260503225416 8 276 1.6 1.6 0.00 0.00 0.00 50 1006.7
20260503224912 8 248 1.6 1.6 0.00 0.00 0.00 48 1006.6
20260503224409 8 251 0.0 0.0 0.00 0.00 0.00 47 1006.7
20260503223907 8 17 0.0 0.0 0.00 0.00 0.00 50 1006.5
20260503223405 8 274 0.0 1.6 0.00 0.00 0.00 49 1006.6
20260503222900 8 336 1.6 3.2 0.00 0.00 0.00 50 1006.4
20260503222359 8 308 3.2 4.8 0.00 0.00 0.00 47 1006.7
20260503221856 8 301 1.6 1.6 0.00 0.00 0.00 48 1006.7
20260503221355 8 3 0.0 1.6 0.00 0.00 0.00 47 1006.8
20260503220850 9 6 0.0 1.6 0.00 0.00 0.00 46 1006.8
20260503220347 9 285 1.6 1.6 0.00 0.00 0.00 50 1006.4
20260503215844 9 3 1.6 1.6 0.00 0.00 0.00 48 1006.7
20260503215342 9 323 0.0 1.6 0.00 0.00 0.00 48 1006.5
20260503214839 9 339 0.0 0.0 0.00 0.00 0.00 49 1006.5
20260503214336 9 296 3.2 3.2 0.00 0.00 0.00 47 1006.5
20260503213833 8 268 0.0 0.0 0.00 0.00 0.00 49 1006.4
20260503213331 8 46 1.6 1.6 0.00 0.00 0.00 53 1006.4
20260503212828 8 38 1.6 3.2 0.00 0.00 0.00 50 1006.6
20260503212326 8 54 0.0 1.6 0.00 0.00 0.00 49 1006.5
20260503211823 8 53 0.0 0.0 0.00 0.00 0.00 51 1006.7
20260503211319 8 94 1.6 1.6 0.00 0.00 0.00 49 1006.7
20260503210819 8 70 0.0 1.6 0.00 0.00 0.00 49 1006.5
20260503210317 8 37 0.0 1.6 0.00 0.00 0.00 51 1006.5
20260503205812 8 90 1.6 1.6 0.00 0.00 0.00 50 1006.4
20260503205309 8 305 0.0 1.6 0.00 0.00 0.00 50 1006.6
20260503204805 8 10 0.0 0.0 0.00 0.00 0.00 51 1006.5
20260503204303 8 330 1.6 3.2 0.00 0.00 0.00 53 1006.4
20260503203800 8 57 0.0 1.6 0.00 0.00 0.00 50 1006.5
20260503203257 8 315 1.6 3.2 0.00 0.00 0.00 50 1006.3
20260503202754 8 75 1.6 1.6 0.00 0.00 0.00 49 1006.4
20260503202252 8 298 1.6 3.2 0.00 0.00 0.00 50 1006.6
20260503201744 8 32 1.6 1.6 0.00 0.00 0.00 49 1006.3
20260503201241 8 84 3.2 3.2 0.00 0.00 0.00 47 1006.3
20260503200738 8 33 4.8 6.4 0.00 0.00 0.00 47 1006.4
20260503200234 8 324 3.2 4.8 0.00 0.00 0.00 48 1006.4
20260503195731 8 277 1.6 1.6 0.00 0.00 0.00 48 1006.4
20260503195228 9 316 3.2 4.8 0.00 0.00 0.00 48 1006.5
20260503194726 8 43 1.6 6.4 0.00 0.00 0.00 47 1006.4
20260503194221 8 278 0.0 1.6 0.00 0.00 0.00 49 1006.5
20260503193718 8 40 3.2 3.2 0.00 0.00 0.00 48 1006.5
20260503193214 8 52 0.0 1.6 0.00 0.00 0.00 49 1006.5
20260503192709 8 326 1.6 1.6 0.00 0.00 0.00 47 1006.7
20260503192205 9 296 3.2 3.2 0.00 0.00 0.00 45 1006.7
20260503191701 10 323 3.2 3.2 0.00 0.00 0.00 44 1006.7
20260503191159 9 309 3.2 3.2 0.00 0.00 0.00 46 1006.6
20260503190656 9 20 3.2 3.2 0.00 0.00 0.00 44 1006.4
20260503190152 9 142 9.7 16.1 0.00 0.00 0.00 43 1006.4
20260503185649 10 29 3.2 4.8 0.00 0.00 0.00 42 1006.4
20260503185144 10 358 3.2 6.4 0.00 0.00 0.00 45 1006.5
20260503184640 10 49 3.2 3.2 0.00 0.00 0.00 45 1006.5
20260503184136 9 6 3.2 4.8 0.00 0.00 0.00 47 1006.5
20260503183633 10 22 3.2 3.2 0.00 0.00 0.00 44 1006.5
20260503183130 10 296 3.2 4.8 0.00 0.00 0.00 48 1006.6
20260503182628 9 87 1.6 1.6 0.00 0.00 0.00 48 1006.4
20260503182126 9 65 0.0 1.6 0.00 0.00 0.00 48 1006.4
20260503181623 9 295 1.6 3.2 0.00 0.00 0.00 44 1006.6
20260503181120 9 310 1.6 3.2 0.00 0.00 0.00 46 1006.6
20260503180617 8 22 1.6 1.6 0.00 0.00 0.00 44 1006.6
20260503180115 8 81 3.2 4.8 0.00 0.00 0.00 45 1006.4
20260503175611 8 59 3.2 4.8 0.00 0.00 0.00 45 1006.4
20260503175108 9 314 4.8 4.8 0.00 0.00 0.00 44 1006.4
20260503174605 9 11 3.2 3.2 0.00 0.00 0.00 45 1006.2
20260503174102 10 312 4.8 4.8 0.00 0.00 0.00 41 1006.3
20260503173556 9 300 1.6 3.2 0.00 0.00 0.00 39 1006.1
20260503173054 10 312 1.6 3.2 0.00 0.00 0.00 43 1006.2
20260503172551 10 43 1.6 1.6 0.00 0.00 0.00 47 1006.2
20260503172048 10 51 1.6 1.6 0.00 0.00 0.00 42 1006.2
20260503171544 9 64 0.0 1.6 0.00 0.00 0.00 47 1006.3
20260503171042 9 41 1.6 1.6 0.00 0.00 0.00 47 1006.2
20260503170538 9 40 4.8 9.7 0.00 0.00 0.00 42 1006.1